sat.trackr.live / text

‹ back to catalog

STARLINK-2162

NORAD 47748 · 2021-017AC

PAYLOAD ACTIVE UNKNOWN

§ Identity

Operator
Country
US
Launch date
2021-03-04
Launch site
AFETR
Launch vehicle
Mass (kg)
RCS (m²)

Purposes: comms

External: N2YO · Heavens-Above · Gunter

§ Orbital elements

Epoch: 2026-05-25T06:00:02.000160Z

Period
91.46 min
Inclination
53.1531°
Eccentricity
0.0001097
Mean motion
15.74438287 rev/d
Perigee alt
345.5 km
Apogee alt
347.0 km
Semi-major
6,724.4 km
B*
6.9889e-3
RAAN
182.7772°
Arg perigee
84.4939°
Mean anomaly
320.7030°
Rev number
589

§ Raw data

STARLINK-21621 47748U 21017AC  26145.25002315  .01141645  00000+0  69889-2 0  99902 47748  53.1531 182.7772 0001097  84.4939 320.7030 15.74438287  5894

JSON: /api/v1/satellites/47748 · /tle

For live sub-satellite position, see the globe view (requires WebGL).

§ Visibility from observer

Set your observer location to see the next 7 days of passes ≥ 10°. The values pass through the URL so the page stays shareable.

No JS? Fill the form by hand. The geolocation button needs JavaScript.